Satellite: RAX-2 Catalog number: 37853 Epoch time: 12332.37412741 Element set: 353 Inclination: 101.7043 deg RA of node: 086.9684 deg Eccentricity: 0.0242320 Arg of perigee: 245.0231 deg Mean anomaly: 112.5611 deg Mean motion: 14.81563153 rev/day Decay rate: 8.552e-05 rev/day^2 Epoch rev: 5854 Checksum: 271
Satellite: AUBIESAT Catalog number: 37854 Epoch time: 12331.33517104 Element set: 351 Inclination: 101.7051 deg RA of node: 085.9389 deg Eccentricity: 0.0242943 Arg of perigee: 247.0116 deg Mean anomaly: 110.5293 deg Mean motion: 14.82052547 rev/day Decay rate: 9.032e-05 rev/day^2 Epoch rev: 5839 Checksum: 278
Satellite: HRBE Catalog number: 37855 Epoch time: 12332.24611595 Element set: 348 Inclination: 101.7063 deg RA of node: 087.1571 deg Eccentricity: 0.0243700 Arg of perigee: 244.6068 deg Mean anomaly: 112.9723 deg Mean motion: 14.81849651 rev/day Decay rate: 8.696e-05 rev/day^2 Epoch rev: 5852 Checksum: 309
Satellite: RS-39 Catalog number: 38051 Epoch time: 12332.47394344 Element set: 927 Inclination: 051.6363 deg RA of node: 100.0510 deg Eccentricity: 0.0011973 Arg of perigee: 259.0486 deg Mean anomaly: 145.4829 deg Mean motion: 15.27634307 rev/day Decay rate: 1.3529e-04 rev/day^2 Epoch rev: 4690 Checksum: 300
Satellite: E-STAR Catalog number: 38079 Epoch time: 12332.31326480 Element set: 669 Inclination: 069.4774 deg RA of node: 299.6259 deg Eccentricity: 0.0686895 Arg of perigee: 039.9118 deg Mean anomaly: 325.0422 deg Mean motion: 14.27735000 rev/day Decay rate: 6.0952e-04 rev/day^2 Epoch rev: 4075 Checksum: 331
Satellite: GOLIAT Catalog number: 38085 Epoch time: 12332.29288664 Element set: 645 Inclination: 069.4838 deg RA of node: 300.5947 deg Eccentricity: 0.0693892 Arg of perigee: 040.4841 deg Mean anomaly: 324.5678 deg Mean motion: 14.26390261 rev/day Decay rate: 5.9021e-04 rev/day^2 Epoch rev: 4072 Checksum: 325
Satellite: HORYU-2 Catalog number: 38340 Epoch time: 12332.44311818 Element set: 257 Inclination: 098.1928 deg RA of node: 272.7069 deg Eccentricity: 0.0012766 Arg of perigee: 167.7563 deg Mean anomaly: 192.3908 deg Mean motion: 14.70438698 rev/day Decay rate: 1.868e-05 rev/day^2 Epoch rev: 2846 Checksum: 336
Satellite: RS-40 Catalog number: 38736 Epoch time: 12332.42553316 Element set: 116 Inclination: 082.4767 deg RA of node: 280.9236 deg Eccentricity: 0.0020119 Arg of perigee: 050.2320 deg Mean anomaly: 310.0535 deg Mean motion: 12.42647991 rev/day Decay rate: 1.0e-07 rev/day^2 Epoch rev: 1518 Checksum: 257
Satellite: PROITERES Catalog number: 38756 Epoch time: 12332.44787642 Element set: 266 Inclination: 098.2767 deg RA of node: 039.5988 deg Eccentricity: 0.0013411 Arg of perigee: 033.4018 deg Mean anomaly: 326.8028 deg Mean motion: 14.73995295 rev/day Decay rate: 1.040e-05 rev/day^2 Epoch rev: 1167 Checksum: 317
Satellite: AENEAS Catalog number: 38760 Epoch time: 12328.86854836 Element set: 0073 Inclination: 064.6720 deg RA of node: 183.1573 deg Eccentricity: 0.0217864 Arg of perigee: 269.5045 deg Mean anomaly: 088.1078 deg Mean motion: 14.79695270 rev/day Decay rate: 6.322e-05 rev/day^2 Epoch rev: 01048 Checksum: 326
Satellite: CSSWE-D Catalog number: 38761 Epoch time: 12328.86725272 Element set: 0072 Inclination: 064.6725 deg RA of node: 183.1541 deg Eccentricity: 0.0219021 Arg of perigee: 269.8463 deg Mean anomaly: 087.7546 deg Mean motion: 14.79562629 rev/day Decay rate: 3.876e-05 rev/day^2 Epoch rev: 01048 Checksum: 329
Satellite: CXBN-E Catalog number: 38762 Epoch time: 12328.86400051 Element set: 0069 Inclination: 064.6739 deg RA of node: 183.1442 deg Eccentricity: 0.0218624 Arg of perigee: 269.3484 deg Mean anomaly: 088.2568 deg Mean motion: 14.79673147 rev/day Decay rate: 4.696e-05 rev/day^2 Epoch rev: 01048 Checksum: 331
Satellite: OBJECT F Catalog number: 38763 Epoch time: 12328.86475519 Element set: 0068 Inclination: 064.6719 deg RA of node: 183.1378 deg Eccentricity: 0.0219183 Arg of perigee: 269.7344 deg Mean anomaly: 087.8645 deg Mean motion: 14.79598814 rev/day Decay rate: 3.710e-05 rev/day^2 Epoch rev: 01032 Checksum: 344
Satellite: CINEMA-G Catalog number: 38764 Epoch time: 12328.86384767 Element set: 0065 Inclination: 064.6711 deg RA of node: 183.1300 deg Eccentricity: 0.0218874 Arg of perigee: 269.7643 deg Mean anomaly: 087.8353 deg Mean motion: 14.79633893 rev/day Decay rate: 3.915e-05 rev/day^2 Epoch rev: 01048 Checksum: 339
Satellite: CP5 Catalog number: 38765 Epoch time: 12328.86065838 Element set: 0066 Inclination: 064.6758 deg RA of node: 183.1131 deg Eccentricity: 0.0218123 Arg of perigee: 269.1901 deg Mean anomaly: 088.4035 deg Mean motion: 14.79754588 rev/day Decay rate: 4.806e-05 rev/day^2 Epoch rev: 01048 Checksum: 330
Satellite: RAIKO Catalog number: 38852 Epoch time: 12332.54841703 Element set: 55 Inclination: 051.6598 deg RA of node: 029.2002 deg Eccentricity: 0.0017199 Arg of perigee: 329.7579 deg Mean anomaly: 030.2383 deg Mean motion: 15.55370058 rev/day Decay rate: 4.1274e-04 rev/day^2 Epoch rev: 831 Checksum: 292
Satellite: FITSAT 1 Catalog number: 38853 Epoch time: 12332.21473223 Element set: 55 Inclination: 051.6587 deg RA of node: 030.7227 deg Eccentricity: 0.0015098 Arg of perigee: 343.1282 deg Mean anomaly: 016.9151 deg Mean motion: 15.56123409 rev/day Decay rate: 5.1019e-04 rev/day^2 Epoch rev: 831 Checksum: 266
Satellite: TechEdSat Catalog number: 38854 Epoch time: 12332.44540524 Element set: 58 Inclination: 051.6474 deg RA of node: 029.2575 deg Eccentricity: 0.0015367 Arg of perigee: 347.4661 deg Mean anomaly: 012.5460 deg Mean motion: 15.57799903 rev/day Decay rate: 7.4272e-04 rev/day^2 Epoch rev: 835 Checksum: 308
Satellite: F 1 Catalog number: 38855 Epoch time: 12332.38474622 Element set: 62 Inclination: 051.6501 deg RA of node: 029.5966 deg Eccentricity: 0.0017291 Arg of perigee: 349.1798 deg Mean anomaly: 010.8814 deg Mean motion: 15.57610976 rev/day Decay rate: 7.1099e-04 rev/day^2 Epoch rev: 823 Checksum: 316
Satellite: WeWish Catalog number: 38856 Epoch time: 12332.52956975 Element set: 66 Inclination: 051.6480 deg RA of node: 028.3173 deg Eccentricity: 0.0019249 Arg of perigee: 341.1869 deg Mean anomaly: 018.8393 deg Mean motion: 15.60930885 rev/day Decay rate: 1.14695e-03 rev/day^2 Epoch rev: 826 Checksum: 331
/EX